[[{"header":{"parameterUnit":"m.s-1","parameterCategory":1,"la1":30.2991,"la2":30.254,"lo1":-89.0895,"lo2":-89.0444,"dy":0.0017,"dx":0.0017,"nx":28,"ny":28,"refTime":"2023-08-24T03:00:00:Z","depth":0,"parameterNumber":2,"parameterNumberName":"U-component_of_WINDS"},"data":[0,0,0,0,0,0,0,0,0,0,0,0,0,0,0,0,0,0,0,0,0,0,0,0,0,0,0,0,0,0,0,0,0,0,0,0,0,0,0,0,0,0,0,0,0,0,0,0,0,0,0,0,0,0,0,0,0,0,1.2304,1.2306,0,1.2434,1.2435,1.2437,1.2491,1.249,1.249,1.249,1.2622,1.2625,1.2629,0,0,0,0,0,0,0,0,0,0,0,0,0,1.2102,1.2106,1.2304,1.2306,1.2308,1.2433,1.2435,1.2437,1.2491,1.249,1.249,1.249,1.262,1.2625,1.2629,0,0,0,0,0,0,0,0,0,0,0,0,0,1.2207,1.2107,1.2304,1.235,1.2355,1.2433,1.2435,1.2437,1.2491,1.249,1.249,1.249,1.2619,1.2624,1.263,1.2672,0,0,1.2647,1.265,0,0,0,0,0,0,0,0,1.2201,1.2214,1.2341,1.2347,1.2353,1.2446,1.2412,1.2516,1.2491,1.2439,1.249,1.2489,1.2563,1.2573,1.2599,1.2678,1.2684,1.2648,1.2651,1.2653,1.2655,0,0,0,0,0,0,0,1.2193,1.2209,1.2355,1.2343,1.235,1.2363,1.2377,1.2432,1.2502,1.2444,1.2448,1.2462,1.2566,1.2593,1.2602,1.2686,1.2647,1.2652,1.2656,1.2658,1.2806,1.2807,0,0,0,0,0,0,1.2179,1.2202,1.2351,1.2359,1.2274,1.2367,1.2383,1.2416,1.2501,1.2514,1.2463,1.2464,1.2584,1.2595,1.2607,1.2662,1.2653,1.2659,1.2662,1.2806,1.2806,1.2807,0,0,0,0,0,0,1.2174,1.2192,1.2346,1.2282,1.2303,1.2371,1.2408,1.2419,1.2446,1.2516,1.2528,1.2477,1.2584,1.2599,1.2655,1.2667,1.2661,1.2666,1.2805,1.2806,1.2807,1.2772,0,0,0,0,0,0,1.2168,1.219,1.2207,1.2282,1.2306,1.2393,1.2408,1.2422,1.2455,1.2459,1.2533,1.2545,1.2585,1.2647,1.2661,1.2675,1.2671,1.2804,1.2805,1.2806,1.2772,1.2771,1.2771,0,0,0,0,0,1.2161,1.2192,1.2207,1.2225,1.2329,1.2393,1.2407,1.2453,1.2456,1.2473,1.2518,1.2542,1.2663,1.2652,1.2669,1.2684,1.2804,1.2805,1.2806,1.2773,1.2771,1.2771,0,0,0,0,0,0,1.2116,1.2203,1.2221,1.2277,1.2328,1.2402,1.2426,1.245,1.2501,1.2502,1.2556,1.2572,1.2624,1.266,1.2646,1.2729,1.2735,1.274,1.2704,1.2704,1.2703,1.2693,1.2675,0,0,0,0,0,1.2113,1.2158,1.2231,1.2274,1.2298,1.2358,1.2387,1.2418,1.2472,1.2494,1.2543,1.2594,1.2644,1.2676,1.2726,1.2777,1.2794,1.2796,1.2795,1.2794,1.2798,1.2827,1.2829,1.2811,1.2811,1.2811,0,0,1.2106,1.2159,1.2185,1.2266,1.2309,1.2354,1.2375,1.2423,1.2457,1.2501,1.2558,1.2595,1.2656,1.271,1.2737,1.2742,1.2806,1.2796,1.2795,1.2799,1.2829,1.283,1.2832,1.2812,1.2812,1.2812,0,0,1.2118,1.2163,1.2203,1.2245,1.231,1.2349,1.2358,1.2429,1.2456,1.2513,1.2547,1.2589,1.2673,1.2715,1.2747,1.2774,1.2797,1.2788,1.2784,1.2812,1.2814,1.2815,1.2824,1.2827,1.2791,1.2791,1.2791,0,1.2102,1.2173,1.2221,1.2266,1.2301,1.2343,1.2384,1.2422,1.2499,1.2522,1.2526,1.2633,1.2677,1.2741,1.2747,1.2772,1.2784,1.278,1.281,1.2812,1.2814,1.2823,1.2826,1.279,1.279,1.279,1.279,0,1.2149,1.2197,1.2222,1.2296,1.2333,1.2376,1.2429,1.2461,1.2488,1.2527,1.2584,1.2638,1.2699,1.2717,1.2744,1.2785,1.2786,1.2799,1.2807,1.2813,1.2823,1.2827,1.2788,1.2788,1.2789,1.2789,0,0,1.2137,1.2236,1.2244,1.2278,1.2351,1.2389,1.2433,1.2493,1.2519,1.2571,1.2609,1.2679,1.2691,1.2728,1.276,1.2785,1.2801,1.2795,1.2797,1.2794,1.2849,1.2839,1.2842,1.2817,1.2818,1.2819,1.2844,0,1.2159,1.2241,1.2285,1.2348,1.2392,1.2432,1.2471,1.252,1.2556,1.2599,1.264,1.2688,1.2702,1.2724,1.275,1.2794,1.2813,1.2793,1.2853,1.2855,1.2837,1.2847,1.2837,1.2858,1.2848,1.2849,1.285,0,1.2195,1.2246,1.2313,1.2381,1.2402,1.2435,1.2493,1.2534,1.259,1.2615,1.2655,1.2686,1.2734,1.2737,1.2803,1.2788,1.2815,1.2841,1.2843,1.285,1.2853,1.2855,1.2866,1.2869,1.2856,1.2855,1.2855,0,1.2179,1.2264,1.2316,1.2343,1.2424,1.2446,1.2481,1.2536,1.2569,1.2619,1.2641,1.2696,1.2726,1.2768,1.2813,1.2812,1.2875,1.2882,1.2897,1.2895,1.2908,1.2907,1.2924,1.2925,1.2925,1.2925,1.2925,0,1.2199,1.2238,1.2309,1.2341,1.2386,1.2436,1.2479,1.2517,1.2566,1.2605,1.2642,1.2678,1.2736,1.2778,1.2814,1.2863,1.2876,1.2898,1.2907,1.2894,1.2892,1.2913,1.2913,1.2926,1.2926,1.2926,1.2926,0,1.2189,1.2238,1.2297,1.2368,1.2387,1.2417,1.2477,1.2509,1.2547,1.2596,1.2611,1.2671,1.2723,1.2772,1.2841,1.2865,1.2915,1.2926,1.2896,1.2901,1.2912,1.2911,1.2944,1.2951,1.2947,1.2947,1.2947,0,1.2198,1.2229,1.2304,1.2333,1.2367,1.2413,1.2447,1.2496,1.253,1.2595,1.2619,1.2674,1.272,1.2802,1.2851,1.2905,1.2918,1.2926,1.2926,1.2913,1.2918,1.2916,1.2919,1.2925,1.2925,1.2924,1.2924,0,1.2209,1.2232,1.2279,1.2335,1.2374,1.242,1.2468,1.2489,1.2548,1.2583,1.2637,1.2673,1.2744,1.2798,1.2856,1.2892,1.2918,1.2924,1.293,1.2918,1.2899,1.2909,1.2893,1.2923,1.2923,1.2923,1.2923,1.2923,1.2209,1.2239,1.2296,1.2347,1.2388,1.2431,1.2464,1.2507,1.2552,1.2614,1.2641,1.2695,1.2749,1.2831,1.2865,1.2908,1.2914,1.2923,1.2926,1.2927,1.2925,1.2891,1.2919,1.2919,1.2919,1.292,1.292,0,1.2222,1.2261,1.2307,1.2373,1.2413,1.2434,1.2487,1.2519,1.2566,1.2615,1.266,1.2721,1.2773,1.2827,1.2882,1.2906,1.2919,1.2918,1.2917,1.2925,1.2916,1.2905,1.2907,1.2907,1.2907,1.2907,1.2907,1.2907,1.2234,1.2285,1.2314,1.2386,1.2424,1.2478,1.2506,1.2546,1.2585,1.2652,1.2695,1.273,1.278,1.2839,1.2888,1.2902,1.2921,1.2917,1.2934,1.2925,1.2926,1.2926,1.2916,1.292,1.292,1.294,1.294,1.294]},{"header":{"parameterUnit":"m.s-1","parameterCategory":1,"la1":30.2991,"la2":30.254,"lo1":-89.0895,"lo2":-89.0444,"dy":0.0017,"dx":0.0017,"nx":28,"ny":28,"refTime":"2023-08-24T03:00:00:Z","depth":0,"parameterNumber":3,"parameterNumberName":"V-component_of_WINDS"},"data":[0,0,0,0,0,0,0,0,0,0,0,0,0,0,0,0,0,0,0,0,0,0,0,0,0,0,0,0,0,0,0,0,0,0,0,0,0,0,0,0,0,0,0,0,0,0,0,0,0,0,0,0,0,0,0,0,0,0,3.771,3.771,0,3.7656,3.7655,3.7654,3.7611,3.761,3.761,3.761,3.7548,3.7547,3.7546,0,0,0,0,0,0,0,0,0,0,0,0,0,3.7772,3.7771,3.771,3.771,3.7709,3.7656,3.7655,3.7654,3.7611,3.761,3.761,3.7609,3.7549,3.7547,3.7546,0,0,0,0,0,0,0,0,0,0,0,0,0,3.7734,3.7771,3.771,3.7681,3.7678,3.7656,3.7655,3.7654,3.7611,3.761,3.761,3.7609,3.7549,3.7547,3.7546,3.7547,0,0,3.754,3.7539,0,0,0,0,0,0,0,0,3.7736,3.7732,3.7686,3.7683,3.7679,3.764,3.7654,3.7618,3.7611,3.7636,3.761,3.7609,3.7579,3.7574,3.7565,3.7544,3.7541,3.754,3.7539,3.7538,3.7537,0,0,0,0,0,0,0,3.7739,3.7734,3.7688,3.7685,3.7681,3.7669,3.7663,3.7647,3.7612,3.7634,3.7631,3.7625,3.7577,3.7567,3.7564,3.754,3.754,3.7538,3.7537,3.7536,3.7517,3.7518,0,0,0,0,0,0,3.7747,3.7736,3.769,3.7687,3.7707,3.7668,3.7662,3.7653,3.7612,3.7605,3.7626,3.7623,3.7571,3.7566,3.7561,3.756,3.7538,3.7536,3.7535,3.7517,3.7517,3.7518,0,0,0,0,0,0,3.7748,3.7743,3.7692,3.7711,3.7703,3.7668,3.7659,3.7652,3.7643,3.7606,3.7598,3.7623,3.757,3.7564,3.7551,3.7557,3.7535,3.7534,3.7516,3.7517,3.7518,3.7558,0,0,0,0,0,0,3.775,3.7744,3.7745,3.7711,3.7703,3.7685,3.7659,3.7652,3.764,3.7637,3.7601,3.7594,3.7569,3.7554,3.7549,3.7554,3.7532,3.7515,3.7516,3.7517,3.7556,3.756,3.7564,0,0,0,0,0,3.7753,3.7757,3.7745,3.774,3.7704,3.7685,3.768,3.7653,3.7641,3.7641,3.7617,3.7596,3.7558,3.7553,3.7547,3.7552,3.7514,3.7516,3.7517,3.7554,3.7559,3.7564,0,0,0,0,0,0,3.7791,3.7752,3.7739,3.7733,3.7713,3.7678,3.7677,3.7659,3.764,3.7637,3.7602,3.7595,3.7585,3.7567,3.7563,3.7551,3.7533,3.7534,3.7563,3.7568,3.7572,3.7576,3.7531,0,0,0,0,0,3.7799,3.7789,3.7755,3.7753,3.7744,3.7713,3.7703,3.7684,3.7661,3.7652,3.7627,3.7604,3.7587,3.7577,3.7559,3.7553,3.7544,3.7554,3.7558,3.7561,3.7561,3.7557,3.756,3.7522,3.7522,3.7522,0,0,3.7814,3.7792,3.7788,3.776,3.7742,3.7731,3.7705,3.7695,3.7686,3.765,3.7637,3.7618,3.759,3.7581,3.7576,3.7566,3.757,3.7563,3.7566,3.7564,3.7559,3.7562,3.7565,3.7523,3.7523,3.7523,0,0,3.7838,3.782,3.7817,3.78,3.7775,3.7754,3.7753,3.7721,3.7708,3.7695,3.7668,3.7656,3.7627,3.7609,3.7596,3.7613,3.7592,3.7608,3.7628,3.7625,3.7628,3.763,3.7636,3.7638,3.7609,3.7609,3.7609,0,3.786,3.7844,3.7817,3.7808,3.7797,3.7766,3.7762,3.7746,3.7715,3.7707,3.7697,3.7661,3.764,3.7627,3.7631,3.7622,3.7619,3.7612,3.763,3.7632,3.7634,3.7639,3.7641,3.7611,3.7611,3.7611,3.7611,0,3.7872,3.7861,3.7861,3.7835,3.7823,3.7817,3.7788,3.7779,3.7761,3.7741,3.7728,3.7702,3.7679,3.7674,3.7656,3.7658,3.7653,3.7637,3.7618,3.764,3.7644,3.7646,3.7614,3.7613,3.7613,3.7612,0,0,3.7916,3.7876,3.7877,3.7864,3.7834,3.7825,3.7817,3.7796,3.7789,3.7769,3.776,3.7738,3.7723,3.7708,3.7688,3.7685,3.77,3.7669,3.7667,3.7675,3.77,3.7712,3.7715,3.7686,3.7687,3.7687,3.7702,0,3.7934,3.7919,3.7896,3.7888,3.7878,3.7849,3.7842,3.7822,3.7804,3.7791,3.7769,3.7754,3.7736,3.7727,3.7723,3.7699,3.7704,3.7698,3.7677,3.7676,3.7684,3.7717,3.7729,3.7745,3.7704,3.7704,3.7704,0,3.7952,3.7936,3.7929,3.79,3.7895,3.7889,3.7869,3.7857,3.7834,3.782,3.7805,3.7783,3.7772,3.7756,3.7739,3.7735,3.7725,3.7712,3.7712,3.7708,3.7691,3.7713,3.7749,3.7751,3.7707,3.7706,3.7706,0,3.7985,3.7961,3.7953,3.7944,3.7911,3.7907,3.7893,3.7869,3.7859,3.784,3.7833,3.7813,3.7801,3.7785,3.7758,3.7749,3.7744,3.7726,3.7732,3.7732,3.7731,3.7731,3.7765,3.7726,3.7726,3.7726,3.7726,0,3.8006,3.8003,3.7968,3.7963,3.7958,3.793,3.7925,3.7908,3.7887,3.7878,3.7851,3.7843,3.7808,3.7794,3.7773,3.7762,3.7757,3.7745,3.7739,3.7747,3.7748,3.7739,3.7737,3.7726,3.7726,3.7726,3.7726,0,3.8041,3.8018,3.8008,3.7978,3.797,3.7968,3.7942,3.7935,3.7916,3.7904,3.79,3.7869,3.7852,3.7824,3.7798,3.7783,3.7776,3.7767,3.7785,3.7781,3.7788,3.7788,3.7817,3.7819,3.778,3.778,3.778,0,3.8056,3.8053,3.8024,3.8017,3.8004,3.7992,3.7982,3.7955,3.7945,3.7919,3.7915,3.7897,3.7881,3.7855,3.7829,3.7809,3.7798,3.781,3.7795,3.7803,3.7798,3.7798,3.7797,3.7813,3.7814,3.7814,3.7814,0,3.8085,3.8074,3.8061,3.8045,3.8034,3.8019,3.8002,3.7997,3.7966,3.7956,3.7939,3.7927,3.7902,3.7884,3.7861,3.7844,3.7824,3.782,3.782,3.7827,3.7837,3.7831,3.7793,3.7819,3.7818,3.7818,3.7818,3.7818,3.811,3.8106,3.8085,3.8072,3.8057,3.8043,3.8035,3.8016,3.8003,3.7982,3.7966,3.7951,3.7928,3.7895,3.788,3.7866,3.7857,3.7857,3.7857,3.7857,3.786,3.7841,3.7862,3.7862,3.7862,3.7861,3.7861,0,3.8137,3.8123,3.8111,3.809,3.8079,3.8064,3.8045,3.8036,3.8024,3.8005,3.799,3.7972,3.7954,3.7928,3.7908,3.7902,3.7892,3.7898,3.7897,3.7893,3.787,3.7872,3.7906,3.7906,3.7906,3.7906,3.7906,3.7906,3.815,3.8142,3.8129,3.8114,3.8099,3.8086,3.8076,3.8062,3.8047,3.8028,3.8015,3.7998,3.7976,3.7955,3.7937,3.793,3.7923,3.7932,3.7921,3.7899,3.7895,3.7891,3.7893,3.7931,3.7931,3.7946,3.7946,3.7946]}]]